Aeroporto :
LOGIN :

Iscrizione | Disclaimer

   EN    FR    IT 

 










Sommario :    VFR   VFR Marginale   IFR   IFR Intensivo   IFR Molto Intensivo
Visibilità : 
Base nubi : 
>= 8 km
>= 3000ft
5 / 8 km
1000 / 3000 ft
1500m / 5 km
500 / 1000 ft
800 / 1500m
200 / 500 ft
< 800m
< 200 ft
Simboli :   Temporali  Nebbia  Neve Forte  Precipitazioni Forti  Vento > 20 kt
SIGMETs :   Varie  Temporali  Ghiacco  Turbolenza  Onda orograficha  Ceneri Vulcaniche






- Altitudine del aeroporto : 291 ft
- Codice IATA : ORY


LFPO - Paris-Orly

ULTIMO METAR :
  • 030130Z AUTO 03003KT CAVOK 19/11 Q1010 NOSIG

METARs OBSOLETI :
  • 030100Z AUTO 03005KT CAVOK 18/11 Q1010 NOSIG
  • 030030Z AUTO 03005KT CAVOK 19/11 Q1011 NOSIG
  • 030000Z AUTO 04007KT CAVOK 20/11 Q1011 NOSIG
  • 022330Z AUTO 02005KT CAVOK 21/11 Q1011 NOSIG
  • 022300Z AUTO 04007KT CAVOK 21/11 Q1011 NOSIG

TAF TAF LFPO
Valido dal 03 a 00 ore il 04 a 06 ore UTC


022300Z 0300/0406 VRB05KT CAVOK
BECMG 0310/0312 28005KT 9999 SCT060 SCT070TCU
TEMPO 0313/0406 -SHRA SCT060 SCT070CB
PROB40
TEMPO 0315/0323 34010G25KT 2000 TSRA BKN050CB
ATIS : +33 1 49 75 65 80



MetMap, La meteo Aeronautica in un colpo d'occhio ! - Copyright ORBIFLY Dicembre 2007 - Disclaimer

ORBIFLY MET'MAP TEAM :

Programmazione e sviluppo : Alexandra Zaïnal
Concezione : Baudouin d'Aumeries
Aiuto per la programmazione : Marc-Olivier Méhu
Supporto tecnico e logistico : Manuel Goepfert
Aiuto per la traduzione : Arnaldo La Scala

Contatto : metmap@orbifly.com




FONTI E CREDITI :

   NOAA